Estación de Petorca

Ultimos registro cada 15 minutos 35
Estación Fecha / Hora Temperatura Humedad Lluvia Velocidad Dirección Radiación Presion
35 Petorca 31-08-2026 08:30 12,9 83,6 0 0 70 265,6 992,5
34 Petorca 31-08-2026 08:15 11,1 87,2 0 1 39 211,9 992,4
33 Petorca 31-08-2026 08:00 9,2 92,9 0 1 21 18,1 992,1
32 Petorca 31-08-2026 07:45 9,2 93,5 0 1,5 18 18,1 992
31 Petorca 31-08-2026 07:30 8,8 94,6 0 1 11 14,4 991,9
30 Petorca 31-08-2026 07:15 9,1 94,8 0 1 14 4,4 991,6
29 Petorca 31-08-2026 07:00 9,1 95,2 0 1 7 1,9 991,5
28 Petorca 31-08-2026 06:45 9,1 95,7 0 1 13 0,6 991,4
27 Petorca 31-08-2026 06:30 9,5 96,3 0 1 7 0,6 991,5
26 Petorca 31-08-2026 06:15 9,3 96,4 0 0 44 0,6 991,3
25 Petorca 31-08-2026 06:00 9,7 96,2 0 0 25 0,6 991,3
24 Petorca 31-08-2026 05:45 10,1 96 0 0 18 0,6 991,3
23 Petorca 31-08-2026 05:30 10,4 96,1 0 0 205 0,6 991,2
22 Petorca 31-08-2026 05:15 10,4 95,7 0 0 357 0,6 991,3
21 Petorca 31-08-2026 05:00 10,4 95,8 0,2 0 11 0,6 991,5
20 Petorca 31-08-2026 04:45 10,5 95,8 0,2 0 357 0,6 991,4
19 Petorca 31-08-2026 04:30 10,5 95,4 0 0 333 0,6 991,6
18 Petorca 31-08-2026 04:15 10,5 94,7 0 0 34 0,6 991,4
17 Petorca 31-08-2026 04:00 10,6 94,1 0 0 56 0,6 991,1
16 Petorca 31-08-2026 03:45 10,5 94,6 0 0,5 24 0,6 990,9
15 Petorca 31-08-2026 03:30 10,4 94,9 0 0 39 0,6 990,7
14 Petorca 31-08-2026 03:15 10,4 95 0 0 28 0,6 990,6
13 Petorca 31-08-2026 03:00 10,4 94,9 0 0 21 0,6 990,4
12 Petorca 31-08-2026 02:45 10,4 94,5 0 0 8 0,6 990,2
11 Petorca 31-08-2026 02:30 10,5 93,4 0 0 357 0,6 990,2
10 Petorca 31-08-2026 02:15 10,6 92,3 0,4 0 352 0,6 990,2
9 Petorca 31-08-2026 02:00 10,7 91,5 0,2 0 93 0,6 990,1
8 Petorca 31-08-2026 01:45 11,2 89 0,4 0 107 0,6 989,9
7 Petorca 31-08-2026 01:30 11,3 90,7 0,4 0 35 0,6 990
6 Petorca 31-08-2026 01:15 11,5 93,5 0,2 0,5 58 0,6 990
5 Petorca 31-08-2026 01:00 11,7 93,5 0,2 0 354 0,6 989,9
4 Petorca 31-08-2026 00:45 11,8 93,4 0,2 0 351 0,6 990
3 Petorca 31-08-2026 00:30 11,9 92 0 0 44 0,6 989,6
2 Petorca 31-08-2026 00:15 12,2 90,2 0 0 66 0,6 989,7
1 Petorca 31-08-2026 00:00 12,2 89,8 0 0,5 220 0,6 989,6